Valencia, Venezuela

8:47 PM VET on September 25, 2016 (GMT -0400)
Arturo Michelena International

Weather History for SVVA - September, 2013

Change the Weather History Date:

Wednesday, September 25, 2013

  Actual Average (SVBS) Record (SVBS)
Temperature  
Mean Temperature 78 °F -  
Max Temperature 86 °F 86 °F 92 °F (2015)
Min Temperature 70 °F 71 °F 60 °F (2000)
Cooling Degree Days 13    
Growing Degree Days 28 (Base 50)    
Moisture  
Dew Point 72 °F    
Average Humidity 85    
Maximum Humidity 100    
Minimum Humidity 62    
Precipitation  
Precipitation 0.20 in - - ()
Sea Level Pressure  
Sea Level Pressure 29.92 in    
Wind  
Wind Speed 3 mph ()    
Max Wind Speed 15 mph    
Max Gust Speed -    
Visibility 6.4 miles    
Events Rain , Thunderstorm    
Averages and records for this station are not official NWS values.
T = Trace of Precipitation, MM = Missing Value Source: Averaged Metar Reports

Daily Weather History Graph

Daily Weather History Graph

Search for Another Location

Airport or City:

Trip Planner

Search our weather history database for the weather conditions in past years. The results will help you decide how hot, cold, wet, or windy it might be!

Date:

Astronomy

Sep. 25, 2013 Rise Set
Actual Time 5:50 AM VET 5:55 PM VET
Civil Twilight 5:29 AM VET 6:16 PM VET
Nautical Twilight 5:05 AM VET 6:41 PM VET
Astronomical Twilight 4:40 AM VET 7:05 PM VET
Moon 10:53 PM VET (9/25) 10:58 AM VET (9/25)
Length of Visible Light 12h 47m
Length of Day
12h 05m
Waning Gibbous, 64% of the Moon is Illuminated
Sep 25
Waning Gibbous
Sep 26
Last Quarter
Oct 4
New
Oct 11
First Quarter
Oct 18
Full

Hourly Weather History & Observations

Time (VET) Temp. Heat Index Dew Point Humidity Pressure Visibility Wind Dir Wind Speed Gust Speed Precip Events Conditions
1:30 AM 73 °F - 70 °F 87% 29.84 in 6 mi Calm Calm - -   Partly Cloudy
1:30 AM 73.4 °F - 69.8 °F 88% 29.92 in - Calm Calm - N/A   Clear
4:30 AM 71.6 °F - 69.8 °F 94% 29.92 in 6.2 mi SSW 3.5 mph - N/A   Scattered Clouds
5:30 AM 71.6 °F - 69.8 °F 94% 29.92 in 6.2 mi SW 1.2 mph - N/A   Mostly Cloudy
6:30 AM 73.4 °F - 69.8 °F 88% 29.95 in 6.2 mi SW 3.5 mph - N/A   Mostly Cloudy
7:30 AM 76 °F - 71 °F 80% 29.89 in 9 mi Calm Calm - -   Mostly Cloudy
7:30 AM 77.0 °F - 71.6 °F 83% 29.95 in 6.2 mi Calm Calm - N/A   Mostly Cloudy
8:30 AM 80.6 °F 84.6 °F 71.6 °F 74% 29.95 in 6.2 mi SE 4.6 mph - N/A   Mostly Cloudy
9:30 AM 80.6 °F 84.6 °F 71.6 °F 74% 29.98 in 6.2 mi SSW 4.6 mph - N/A   Mostly Cloudy
10:30 AM 78.8 °F - 75.2 °F 89% 29.98 in 5.6 mi WSW 11.5 mph - N/A Rain Light Rain
11:30 AM 77.0 °F - 73.4 °F 89% 29.95 in 6.2 mi West 6.9 mph - N/A   Mostly Cloudy
12:30 PM 82.4 °F 88.2 °F 73.4 °F 74% 29.92 in 6.2 mi West 4.6 mph - N/A   Scattered Clouds
1:30 PM 86 °F - 75 °F 62% 29.83 in 9 mi WSW 4.5 mph - -   Partly Cloudy
1:30 PM 86.0 °F 95.1 °F 75.2 °F 70% 29.89 in 6.2 mi WSW 5.8 mph - N/A   Scattered Clouds
2:30 PM 78.8 °F - 69.8 °F 74% 29.89 in 5.6 mi East 15.0 mph - N/A Thunderstorm Unknown
3:30 PM 78.8 °F - 73.4 °F 83% 29.86 in 6.2 mi ENE 1.2 mph - N/A   Mostly Cloudy
4:30 PM 80.6 °F 85.4 °F 73.4 °F 79% 29.86 in 6.2 mi Calm Calm - N/A   Mostly Cloudy
5:30 PM 78.8 °F - 75.2 °F 89% 29.89 in 6.2 mi SE 3.5 mph - N/A   Scattered Clouds
6:30 PM 77.0 °F - 75.2 °F 94% 29.92 in 6.2 mi SSW 3.5 mph - N/A   Scattered Clouds
7:30 PM 75.2 °F - 73.4 °F 94% 29.92 in 6.2 mi SW 3.5 mph - N/A   Scattered Clouds
8:30 PM 75.2 °F - 73.4 °F 94% 29.92 in 6.2 mi WSW 8.1 mph - N/A   Partly Cloudy
9:30 PM 73.4 °F - 73.4 °F 100% 29.95 in 6.2 mi WSW 6.9 mph - N/A   Scattered Clouds
10:30 PM 73.4 °F - 71.6 °F 94% 29.95 in 6.2 mi WSW 10.4 mph - N/A   Scattered Clouds